Theta_e
318 319 320 322 322 321 322 322 322 324 327 328 329 328 329 328 327 321 316 323 322 325 323 314 314 311 311 310 312 313 307 305 306 301 303 311 311 313 318 317 319 320 319 324 331
318 318 319 320 322 322 321 322 323 324 324 327 328 327 326 327 320 314 328 333 330 326 315 316 308 310 305 307 309 308 307 308 313 307 305 310 312 312 313 315 316 318 323 329 327
318 318 319 319 321 322 322 321 322 323 322 325 326 326 323 324 313 313 329 332 330 325 317 315 313 310 304 308 307 309 307 313 309 307 308 310 312 314 313 311 315 316 320 325 324
318 318 318 318 319 321 321 321 321 323 322 322 325 325 323 318 302 318 329 331 331 326 317 312 309 305 304 301 309 305 308 311 310 306 306 309 312 309 313 315 318 319 324 322 322
317 317 317 317 317 319 320 319 321 322 322 320 322 324 319 310 310 321 321 329 327 324 320 311 307 305 302 304 305 302 306 305 305 305 305 308 310 310 312 316 315 320 324 323 325
316 317 316 316 317 318 318 318 318 322 321 320 319 323 315 302 322 317 319 320 325 324 320 317 310 311 306 306 302 305 304 304 304 304 304 303 306 309 312 316 314 319 322 324 324
316 316 315 316 315 317 317 317 317 321 320 319 319 319 312 309 323 318 319 318 320 323 319 321 320 312 311 306 308 303 300 301 302 303 303 305 300 301 312 314 313 318 320 322 324
316 316 315 316 315 315 316 316 316 317 318 319 319 313 306 320 321 318 318 316 316 312 311 325 323 316 311 310 305 302 302 297 302 302 303 303 297 305 309 310 311 315 318 320 323
314 315 315 315 315 314 315 316 317 316 317 317 313 307 302 317 313 318 319 314 312 308 310 318 318 309 307 304 298 297 296 298 302 303 301 300 299 305 308 309 309 313 315 319 321
314 314 314 315 315 314 314 314 315 315 315 315 312 303 306 305 310 312 317 315 308 304 303 305 303 298 295 302 295 295 297 296 302 302 303 298 301 303 305 308 309 311 314 317 319
314 314 314 314 313 313 313 310 302 301 305 301 300 300 303 311 312 310 311 307 305 302 296 299 296 296 300 302 307 305 302 299 303 306 300 302 301 305 304 306 308 309 312 315 318
313 314 313 313 311 313 311 302 301 306 297 303 303 302 307 311 302 305 311 303 299 294 295 292 291 302 302 299 305 305 300 300 296 299 299 302 302 306 306 303 307 309 310 313 315
313 312 312 312 312 310 305 303 312 309 294 296 302 300 304 308 301 301 307 303 298 292 292 290 296 301 297 296 295 302 300 301 298 295 296 297 300 302 306 305 305 307 310 312 314
312 312 311 311 306 306 302 308 311 309 287 290 295 302 305 307 299 306 307 300 294 289 291 292 295 294 294 293 295 298 307 304 294 292 293 298 295 304 304 303 303 304 305 308 311
312 312 311 311 303 301 304 310 309 304 275 293 296 309 307 300 299 300 307 300 291 289 289 288 290 288 291 292 296 298 302 300 296 295 297 292 291 298 305 302 300 303 305 306 308
311 311 311 309 307 307 310 309 304 285 273 289 296 296 298 299 299 300 298 301 297 290 289 288 293 291 293 295 295 298 295 295 295 295 289 296 293 296 299 301 303 304 304 306 307
311 310 309 308 300 310 310 302 283 276 290 287 288 294 296 293 294 293 291 290 287 284 285 286 286 292 293 289 290 294 294 284 284 285 287 289 292 295 300 301 302 305 307 306 308
310 309 308 307 310 309 303 288 275 283 285 289 289 290 289 293 293 291 291 289 293 292 287 285 282 287 293 289 289 291 298 288 282 284 288 285 285 292 299 303 304 303 303 304 307
309 306 304 307 310 308 296 280 281 285 287 288 289 286 288 290 293 291 291 291 294 295 289 287 285 292 293 293 293 290 289 296 286 282 286 288 291 295 298 297 298 299 301 301 303
301 299 299 308 310 303 289 283 284 291 289 287 283 287 285 287 290 289 290 295 294 297 299 293 282 289 288 290 291 288 297 288 289 280 281 287 287 291 293 296 298 296 298 300 302
298 291 299 308 307 294 281 284 286 289 290 287 285 285 286 288 291 289 290 295 297 296 299 296 288 284 287 285 286 289 289 291 292 289 285 282 287 295 297 297 296 297 297 297 298
294 286 301 305 287 287 284 287 291 290 292 289 288 286 285 290 292 291 290 294 299 297 292 298 291 282 285 292 293 291 290 291 287 283 285 284 288 293 296 295 295 296 297 298 298
290 290 302 301 282 283 287 287 288 286 289 288 286 289 290 289 289 294 294 299 298 295 294 292 289 281 282 287 291 287 290 292 292 290 284 286 289 294 294 294 296 297 297 297 298
290 283 289 292 293 286 284 284 284 290 290 289 288 288 286 287 295 292 293 295 298 297 296 295 290 288 282 286 290 286 289 291 291 287 287 288 292 291 293 294 295 296 297 297 299
286 285 287 281 285 288 287 285 283 283 289 290 287 286 285 286 291 291 294 292 295 297 294 295 286 287 286 288 292 289 288 289 288 291 287 290 291 294 295 295 297 298 298 298 298
286 284 286 288 288 287 287 284 284 285 286 285 285 287 288 284 292 290 292 292 291 292 293 295 286 286 283 287 289 289 291 290 289 291 291 292 291 298 299 299 298 298 298 297 298
291 291 294 288 287 285 285 286 285 288 288 289 290 288 286 289 298 299 298 297 295 292 291 290 286 286 282 285 286 283 288 289 291 293 292 288 293 295 293 293 296 299 300 299 299
Wind_Speed
16 17 16 16 15 14 14 12 13 7 9 11 8 6 7 8 7 10 19 9 8 11 6 6 5 12 9 4 4 3 10 12 15 12 12 9 12 6 4 6 7 7 4 4 22
17 17 16 16 16 14 14 13 12 11 8 10 9 8 6 9 12 19 7 9 16 12 8 9 8 8 8 11 5 10 12 17 8 10 10 11 15 12 9 10 8 8 4 15 19
17 16 16 15 16 15 14 12 10 11 8 8 10 12 8 10 5 8 11 11 15 12 9 10 12 4 13 12 10 9 15 16 7 6 4 10 14 13 11 13 13 14 14 17 16
18 16 15 14 15 15 14 13 12 12 9 5 10 12 11 3 10 9 15 11 16 17 13 13 9 4 5 8 12 11 16 9 6 7 4 11 10 10 16 5 7 11 18 19 20
19 16 14 12 12 14 15 13 12 13 12 8 7 15 8 8 8 6 2 13 17 20 19 13 14 8 9 4 9 11 7 8 5 8 5 3 13 13 16 8 1 9 19 20 20
19 16 14 11 10 11 12 11 9 12 12 11 4 17 10 20 5 11 9 15 17 20 20 17 14 11 3 6 3 8 7 9 8 9 6 6 7 8 14 11 9 14 18 18 21
20 17 15 12 10 11 11 10 8 11 13 11 9 9 12 18 5 12 10 10 7 20 18 17 11 13 11 3 2 6 10 8 10 10 6 6 6 12 6 14 14 15 15 16 18
22 19 17 14 12 10 10 10 8 5 9 11 10 5 12 8 8 12 12 7 7 6 7 14 13 11 3 9 3 3 4 12 15 13 6 11 15 16 14 14 17 17 15 15 18
24 21 19 16 14 10 8 7 7 8 10 7 6 7 16 12 11 12 13 16 9 9 9 3 9 4 2 9 7 3 6 15 14 15 8 13 11 18 14 16 16 16 16 15 16
24 22 21 18 14 11 7 2 2 4 7 6 5 4 6 10 7 13 6 15 8 11 4 4 5 5 5 10 19 9 12 6 18 12 14 14 15 5 11 15 18 18 17 17 17
25 24 22 18 15 14 10 4 5 6 8 10 7 17 5 11 11 8 10 12 7 5 10 4 5 17 18 14 16 20 17 16 15 9 14 19 17 18 12 14 16 17 18 18 18
27 25 22 19 17 16 12 11 12 6 7 17 20 18 13 10 6 13 18 9 5 8 3 3 18 18 13 10 17 20 20 19 4 5 10 15 21 19 19 16 18 19 18 18 17
28 25 22 20 16 14 15 17 2 2 6 6 16 16 10 11 16 16 19 15 9 12 12 11 3 10 10 8 16 22 23 18 8 4 10 5 17 19 20 19 17 18 17 18 17
29 26 23 20 12 14 15 12 6 4 5 6 8 9 9 8 9 13 13 11 4 10 7 7 1 10 7 11 17 20 21 15 13 14 8 13 8 19 23 20 20 19 16 17 18
30 28 26 23 10 14 11 11 8 2 8 5 9 11 16 15 18 9 9 9 19 13 9 5 6 7 13 13 19 7 12 16 14 11 4 9 7 14 15 23 20 21 22 20 19
32 30 28 16 8 16 15 18 7 5 12 4 3 11 20 9 15 9 5 11 13 10 7 2 3 4 12 10 13 11 19 13 6 5 10 16 15 10 11 16 18 19 20 21 20
33 31 24 13 12 17 16 11 6 12 2 2 2 10 24 9 12 9 14 16 13 10 7 3 2 2 2 6 4 14 20 6 5 8 9 1 14 12 3 4 11 13 18 19 17
33 30 19 12 15 18 10 4 13 10 16 6 3 11 16 15 13 15 21 14 11 9 13 9 6 11 10 9 9 22 14 9 10 9 9 1 10 6 12 11 13 10 4 3 12
33 14 12 12 18 13 11 13 9 7 8 4 0 7 13 12 10 15 18 23 16 17 12 9 3 12 10 7 11 18 13 4 8 3 2 8 6 9 12 11 9 10 9 10 11
13 11 12 18 17 12 10 17 9 8 8 4 2 7 10 20 13 12 24 22 18 21 13 10 6 2 3 2 15 15 12 7 4 8 6 6 5 7 4 10 8 6 6 3 7
10 9 10 16 10 11 12 11 15 14 14 8 4 4 6 13 16 17 27 23 20 23 16 16 7 3 4 9 15 13 14 7 7 2 4 5 4 2 6 3 1 2 4 1 2
6 7 15 13 9 6 12 14 10 9 10 6 3 5 6 18 22 23 28 22 26 26 26 16 9 8 12 6 8 14 10 16 6 6 1 2 1 3 5 3 1 2 2 1 0
10 5 12 13 10 10 8 16 10 12 16 10 5 7 6 15 16 22 20 8 25 25 25 13 10 9 7 3 5 11 16 15 3 2 6 4 3 5 2 1 3 4 6 5 5
7 8 6 10 8 15 18 12 16 12 7 4 4 1 9 18 18 24 19 12 21 26 9 5 5 10 15 13 14 18 25 16 15 5 6 10 8 8 8 7 6 5 4 4 5
3 5 5 14 16 18 22 14 16 12 17 16 6 11 9 9 18 19 18 10 17 20 6 5 4 3 4 0 20 18 23 18 21 19 15 12 17 12 13 11 8 4 0 3 3
6 7 3 13 20 17 18 16 19 22 11 14 16 18 16 19 14 25 24 15 24 10 10 6 6 4 4 4 9 20 18 19 25 23 26 12 13 8 11 7 6 6 8 4 5
3 2 6 10 17 15 16 21 23 21 16 20 17 6 13 25 19 13 15 14 21 32 24 18 10 9 5 2 9 3 27 31 29 26 29 25 14 6 5 4 6 8 6 5 4
Wind_Direction
238 242 245 238 233 242 249 257 266 278 281 255 240 216 210 178 181 195 205 197 153 108 106 93 51 319 280 232 257 250 236 234 229 216 233 149 185 228 64 132 191 170 353 42 137
230 239 238 246 236 232 243 251 258 255 290 258 234 183 161 161 201 220 218 171 133 148 138 160 142 338 272 235 212 215 226 230 245 219 234 182 197 169 179 169 189 174 114 122 146
228 231 234 242 247 233 232 238 255 243 257 275 228 173 157 174 229 231 201 169 154 133 116 110 89 48 269 255 211 215 233 230 203 226 243 183 203 173 202 200 200 192 159 148 163
222 223 226 239 245 239 225 240 246 237 231 317 236 182 164 215 225 138 186 157 163 169 121 113 97 124 248 236 213 229 230 255 197 168 183 183 188 202 215 190 226 190 159 162 174
220 217 218 231 241 235 230 242 249 231 225 221 309 172 166 219 236 126 22 154 165 166 170 149 144 174 219 231 249 226 193 208 194 170 193 205 204 206 211 172 120 164 158 174 181
214 211 205 213 232 222 226 235 254 221 219 219 245 183 207 235 187 144 151 187 181 179 173 166 171 184 197 243 253 335 240 193 186 181 164 204 209 196 222 182 174 167 178 182 187
207 205 198 198 217 220 228 231 241 227 211 213 212 246 213 233 184 155 131 183 188 199 179 175 134 165 166 143 194 274 230 197 196 187 178 194 203 221 205 161 186 187 187 188 193
202 199 196 191 205 210 222 230 223 235 227 222 222 274 239 207 140 182 147 119 57 45 355 192 169 189 218 114 84 195 294 207 190 178 183 192 232 217 202 184 199 198 191 193 195
198 194 192 190 195 203 216 234 213 233 219 219 217 192 266 138 168 180 187 152 114 51 40 228 142 162 107 189 135 239 193 215 182 192 154 201 220 235 176 198 205 200 200 197 202
196 190 188 187 189 188 199 189 148 239 223 233 258 190 206 181 150 139 158 131 117 98 113 270 93 174 128 202 203 154 195 223 217 192 208 201 231 164 184 206 212 203 200 204 206
193 186 185 185 185 184 166 176 206 212 215 233 187 226 261 167 141 155 143 105 109 124 180 184 209 206 182 236 223 201 202 206 220 184 202 219 224 233 194 213 223 215 208 205 208
192 185 182 177 184 183 201 210 231 23 235 227 245 265 234 176 136 154 164 135 134 130 128 130 225 206 187 214 244 195 185 203 325 142 221 223 236 231 225 210 216 220 214 213 206
188 181 173 170 180 184 200 213 63 214 277 263 224 233 225 219 169 174 176 148 161 129 196 203 230 199 196 179 256 197 184 190 176 176 239 291 254 241 235 223 220 226 222 221 209
181 174 165 162 175 190 202 175 123 99 268 237 212 229 199 193 196 163 164 124 101 142 168 243 120 198 172 202 230 198 183 166 147 164 215 192 257 215 217 220 218 215 220 221 213
175 167 162 168 163 181 185 150 129 129 254 175 183 145 180 179 126 195 161 98 147 140 141 184 195 199 190 202 223 238 164 158 161 205 264 198 245 251 226 214 209 214 213 213 212
170 163 161 184 160 158 141 138 129 163 232 214 126 183 203 165 165 143 126 78 103 102 61 92 89 211 209 210 255 184 120 115 133 184 242 221 213 234 200 220 217 210 217 215 209
166 162 165 168 151 142 144 151 146 221 87 193 250 248 200 170 128 171 148 141 138 137 151 124 133 210 212 188 324 238 149 127 169 204 232 34 209 254 227 221 243 231 219 216 215
161 158 169 167 136 142 147 121 214 174 216 140 206 237 193 153 172 180 151 154 161 117 136 152 192 180 185 209 183 224 190 158 179 197 192 77 230 235 241 242 244 224 247 292 223
151 155 162 163 156 159 171 197 213 185 211 257 36 250 203 197 151 157 187 168 176 157 128 159 170 147 186 218 246 222 228 97 92 45 161 194 244 273 248 231 236 236 230 236 225
143 148 160 157 161 170 189 216 225 169 141 117 230 231 217 177 166 167 177 181 174 179 148 141 107 131 115 76 287 264 219 169 182 155 206 181 253 240 219 227 164 194 218 228 213
128 133 155 160 152 170 203 214 219 244 218 174 215 276 275 193 182 181 185 170 173 172 181 146 121 90 141 201 193 213 213 226 178 181 211 170 216 110 182 160 202 77 119 138 128
111 136 164 149 167 189 207 202 203 203 197 173 178 242 280 212 184 183 191 177 172 161 169 167 129 154 195 131 215 280 231 221 202 170 69 11 233 161 117 80 13 352 87 87 318
123 103 162 166 185 187 196 217 229 198 200 175 186 201 240 236 200 200 193 160 171 168 169 170 155 116 140 306 267 226 225 224 203 88 189 162 191 144 170 156 118 107 123 124 117
120 137 137 194 220 187 194 219 222 209 206 169 158 235 292 254 221 193 165 159 167 175 137 106 152 173 182 201 145 197 209 217 218 205 145 218 190 187 206 193 165 152 137 132 162
101 120 156 179 201 191 189 201 211 216 212 202 200 203 229 260 208 178 156 136 170 175 105 104 122 100 25 239 179 189 192 195 206 218 217 213 220 186 190 197 182 174 19 228 216
122 135 173 168 189 201 190 211 211 209 183 209 227 221 249 271 202 165 159 161 172 159 153 178 164 115 29 350 153 183 191 197 225 220 236 237 205 223 263 223 216 249 271 222 215
91 91 162 147 186 188 208 215 217 214 216 234 214 206 244 264 226 189 162 156 168 168 173 173 143 161 174 246 108 120 196 203 217 218 221 218 223 173 205 204 215 240 249 243 219